This is the latest recevied weather packets stored in our database for station/object K6CEG. If no packets are shown the sender has not sent any weather packets the latest 10 day(s).
| Time | Temp. | Humidity | Pressure | Rain* | Wind** | Luminosity | Snow |
|---|---|---|---|---|---|---|---|
| 1788025774 | 31.67° C | 50% | 1014.9 hPa | 0 mm | - | 533 W/m² | - |
| 1788025473 | 31.67° C | 50% | 1014.9 hPa | 0 mm | - | 477 W/m² | - |
| 1788025170 | 32.22° C | 49% | 1015.1 hPa | 0 mm | - | 614 W/m² | - |
| 1788024870 | 31.11° C | 51% | 1014.9 hPa | 0 mm | - | 723 W/m² | - |
| 1788024565 | 31.67° C | 49% | 1015.1 hPa | 0 mm | - | 727 W/m² | - |
| 1788024264 | 30.56° C | 51% | 1015.1 hPa | 0 mm | - | 638 W/m² | - |
| 1788023961 | 30.56° C | 51% | 1015.1 hPa | 0 mm | - | 603 W/m² | - |
| 1788023656 | 31.11° C | 50% | 1015.1 hPa | 0 mm | - | 605 W/m² | - |
| 1788023352 | 31.67° C | 49% | 1015.1 hPa | 0 mm | - | 653 W/m² | - |
| 1788023051 | 31.11° C | 48% | 1015.2 hPa | 0 mm | - | 664 W/m² | - |
| 1788022749 | 31.11° C | 48% | 1014.9 hPa | 0 mm | - | 434 W/m² | - |
| 1788022448 | 31.11° C | 48% | 1015.2 hPa | 0 mm | - | 417 W/m² | - |
| 1788022143 | 30.56° C | 50% | 1015.3 hPa | 0 mm | - | 513 W/m² | - |
| 1788021837 | 30.56° C | 52% | 1014.9 hPa | 0 mm | - | 472 W/m² | - |
| 1788021535 | 31.11° C | 50% | 1014.8 hPa | 0 mm | - | 493 W/m² | - |
| 1788021234 | 30.56° C | 52% | 1015.1 hPa | 0 mm | - | 444 W/m² | - |
| 1788020930 | 30° C | 53% | 1015.1 hPa | 0 mm | - | 419 W/m² | - |
| 1788020629 | 30° C | 51% | 1014.9 hPa | 0 mm | - | 337 W/m² | - |
| 1788020326 | 29.44° C | 52% | 1014.8 hPa | 0 mm | - | 370 W/m² | - |
| 1788020021 | 29.44° C | 55% | 1014.9 hPa | 0 mm | - | 301 W/m² | - |
| 1788019716 | 28.89° C | 56% | 1015.1 hPa | 0 mm | - | 304 W/m² | - |
| 1788019416 | 28.89° C | 55% | 1014.7 hPa | 0 mm | - | 340 W/m² | - |
| 1788019114 | 28.33° C | 58% | 1014.5 hPa | 0 mm | - | 299 W/m² | - |
| 1788018815 | 28.33° C | 58% | 1015.1 hPa | 0 mm | - | 281 W/m² | - |
| 1788018514 | 28.33° C | 58% | 1014.8 hPa | 0 mm | - | 266 W/m² | - |
* Rain latest hour (hover to see other rain measurements)
** Current wind speed in m/s (hover to see current wind gust speed)